THORAD AGENA D DEB, 4686

Orbit data source: Space-Track

THORAD AGENA D DEB, 4686 is space debris in SSO originally from a launch on Wed, 08 Apr 1970 UTC launched from the Air Force Western Test Range (AFWTR). Debris objects in space refer to the collection of defunct objects orbiting the Earth. Examples of debris include non-operational satellites, rocket bodies, and fragments generated from explosions, collisions, or faulty payload assembly.

Loading next visibility...
Identifier
4686, 1970-025BK
Orbit
SSO
Country
Flag of USUS
Related business
Manufacturer
Unknown
Mission
Spacecraft
Bus & Motor
Unknown
Mass
Unknown
Launch date (UTC)
1970-04-08 (56 years ago)
Launch vehicle
Unknown
Launch site
Air Force Western Test Range (AFWTR)
Object type
Payload
Rocket body
Debris
Shape & HBR
Unknown shape, 0.1 m
Radar Cross Section
Small (<0.1 m²)

Expand to show TLE details & history
Last TLE update: 8 hours ago

TLE from 8 hours ago
0 THORAD AGENA D DEB
1 04686U 70025BK  25300.22820433  .00000680  00000-0  10091-2 0  9999
2 04686 100.2026  30.1104 0034557 322.6933  64.8542 13.57666839739099
Epoch: 2025-10-27T05:28Z
TLE epoch observation values (Epoch: 2025-10-27T05:28:36.854Z)
Latitude
27.46838°
Longitude
-93.21704°
Altitude
1,036.597 km
Speed
7.341 km/s
True Right ascension
01h 39m 04s
True Declination
27° 19' 59"
Sunlit
Object was in full shadow at epoch
Visualization orbit readout
Latitude
Unknown
Longitude
Unknown
Altitude
Unknown
Speed
Unknown
Apparent Right ascension
Unknown
Apparent Declination
Unknown
Sunlit
N/A
Visualization observer readout
Local Sidereal Time
09:07:07
Azimuth
Unknown
Elevation
Unknown
Doppler factor
Unknown
Orbital elements
Apogee altitude
1,067.141 km
Perigee altitude
1,015.861 km
Semi-major axis
7,419.638 km
Eccentricity
0.00346
Inclination
100.2026°
RAAN
30.1104°
Arg. of periapsis
322.6933°
True anomaly
65.21332°
Mean anomaly
64.8542°
Eccentric anomaly
65.0337°
Mean motion
3.39601 °/min
Orbital period
106.01 mins
BSTAR
0.0010091
Loading maneuver chart data...
Computing Atmospheric mass density...

Documentation

Showing up to 5 results
|